GAF55K EGHI-EDDK

Flight info

Callsign GAF55K
Flight time 1h 0m
Altitude 37000
Route GWC N16 BIG UL9 KONAN UL607 KOK DCT REMBA UL607 SPI T857 DENOV T861 ERUKI ERUKI1C
Aircraft A21N/M-SDE2E3FGHIRWXY/LB1

Departure

Time 2026-05-05 17:16
Airport Southampton Airport (EGHI)

Arrival

Time 2026-05-05 18:16
Airport Cologne Bonn Airport (EDDK)
Time Latitude Longitude Altitude Speed Heading
2026-05-05 16:36 50.94995 -1.36241 45 ft 0 kts 19°
2026-05-05 17:03 50.94975 -1.36250 44 ft 4 kts
2026-05-05 17:03 50.94950 -1.36247 43 ft 4 kts 335°
2026-05-05 17:04 50.94933 -1.36222 39 ft 4 kts 291°
2026-05-05 17:04 50.94925 -1.36186 42 ft 4 kts 290°
2026-05-05 17:04 50.94915 -1.36146 43 ft 4 kts 290°
2026-05-05 17:04 50.94906 -1.36106 44 ft 4 kts 289°
2026-05-05 17:05 50.94898 -1.36066 42 ft 4 kts 284°
2026-05-05 17:05 50.94895 -1.36026 44 ft 4 kts 257°
2026-05-05 17:05 50.94905 -1.36003 42 ft 4 kts 199°
2026-05-05 17:05 50.94931 -1.35989 43 ft 4 kts 199°
2026-05-05 17:06 50.94956 -1.35975 43 ft 4 kts 199°
2026-05-05 17:06 50.94982 -1.35961 42 ft 4 kts 199°
2026-05-05 17:06 50.95008 -1.35947 43 ft 4 kts 199°
2026-05-05 17:06 50.95033 -1.35933 42 ft 4 kts 199°
2026-05-05 17:07 50.95059 -1.35919 39 ft 4 kts 199°
2026-05-05 17:07 50.95084 -1.35904 40 ft 4 kts 199°
2026-05-05 17:07 50.95108 -1.35891 42 ft 2 kts 199°
2026-05-05 17:07 50.95110 -1.35890 43 ft 0 kts 199°
2026-05-05 17:10 50.95108 -1.35891 44 ft 1 kts 199°
2026-05-05 17:10 50.95091 -1.35899 45 ft 4 kts 182°
2026-05-05 17:10 50.95058 -1.35885 42 ft 7 kts 128°
2026-05-05 17:11 50.95054 -1.35863 45 ft 0 kts 107°
2026-05-05 17:12 50.95053 -1.35857 45 ft 2 kts 108°
2026-05-05 17:12 50.95044 -1.35821 45 ft 5 kts 111°
2026-05-05 17:13 50.95027 -1.35752 43 ft 8 kts 111°
2026-05-05 17:13 50.94973 -1.35710 45 ft 11 kts 192°
2026-05-05 17:13 50.94850 -1.35775 45 ft 30 kts 199°
2026-05-05 17:13 50.94612 -1.35907 44 ft 36 kts 200°
2026-05-05 17:14 50.94388 -1.36031 43 ft 18 kts 198°
2026-05-05 17:14 50.94328 -1.36034 42 ft 5 kts 164°
2026-05-05 17:14 50.94304 -1.36055 44 ft 3 kts 270°
2026-05-05 17:14 50.94313 -1.36065 43 ft 2 kts 347°
2026-05-05 17:15 50.94321 -1.36063 43 ft 0 kts 10°
2026-05-05 17:15 50.94397 -1.36032 43 ft 33 kts 18°
2026-05-05 17:16 50.94952 -1.35721 47 ft 133 kts 19°
2026-05-05 17:16 50.95911 -1.35220 784 ft 146 kts 18°
2026-05-05 17:16 50.96891 -1.34705 1581 ft 152 kts 18°
2026-05-05 17:16 50.97893 -1.34171 1826 ft 151 kts 18°
2026-05-05 17:17 50.98765 -1.33266 1917 ft 155 kts 51°
2026-05-05 17:17 50.99023 -1.31603 1969 ft 163 kts 92°
2026-05-05 17:17 50.98541 -1.29965 1991 ft 169 kts 130°
2026-05-05 17:17 50.97589 -1.28855 2019 ft 177 kts 143°
2026-05-05 17:18 50.96502 -1.27697 1988 ft 191 kts 141°
2026-05-05 17:18 50.95478 -1.26349 2101 ft 190 kts 135°
2026-05-05 17:18 50.94682 -1.24725 2911 ft 187 kts 114°
2026-05-05 17:18 50.94069 -1.22933 3873 ft 188 kts 115°
2026-05-05 17:19 50.93484 -1.21051 4846 ft 189 kts 107°
2026-05-05 17:19 50.93054 -1.19102 5802 ft 192 kts 105°
2026-05-05 17:19 50.92627 -1.17059 6749 ft 198 kts 104°
2026-05-05 17:19 50.92251 -1.14864 7449 ft 218 kts 102°
2026-05-05 17:20 50.91828 -1.12362 7796 ft 253 kts 103°
2026-05-05 17:20 50.91341 -1.09504 8139 ft 280 kts 104°
2026-05-05 17:20 50.90823 -1.06490 9092 ft 285 kts 103°
2026-05-05 17:20 50.90301 -1.03449 10116 ft 288 kts 104°
2026-05-05 17:21 50.89771 -1.00368 11066 ft 291 kts 103°
2026-05-05 17:21 50.89238 -0.97272 11996 ft 295 kts 103°
2026-05-05 17:21 50.88692 -0.94105 12922 ft 299 kts 103°
2026-05-05 17:22 50.87587 -0.87691 14716 ft 305 kts 104°
2026-05-05 17:22 50.87022 -0.84425 15561 ft 309 kts 104°
2026-05-05 17:22 50.86450 -0.81110 16395 ft 313 kts 102°
2026-05-05 17:22 50.86188 -0.77692 17200 ft 315 kts 85°
2026-05-05 17:23 50.86677 -0.74319 17971 ft 318 kts 65°
2026-05-05 17:23 50.87428 -0.72320 18445 ft 319 kts 51°
2026-05-05 17:23 50.88948 -0.69714 19076 ft 327 kts 44°
2026-05-05 17:23 50.90606 -0.67115 19415 ft 344 kts 44°
2026-05-05 17:24 50.92343 -0.64362 19685 ft 362 kts 44°
2026-05-05 17:24 50.94151 -0.61454 19937 ft 379 kts 45°
2026-05-05 17:24 50.96023 -0.58394 20164 ft 395 kts 45°
2026-05-05 17:24 50.97963 -0.55193 20393 ft 408 kts 45°
2026-05-05 17:25 50.99943 -0.51909 20841 ft 414 kts 45°
2026-05-05 17:25 51.01270 -0.49713 21201 ft 417 kts 45°
2026-05-05 17:25 51.03972 -0.45251 21929 ft 421 kts 45°
2026-05-05 17:25 51.06018 -0.41875 22475 ft 425 kts 45°
2026-05-05 17:26 51.08071 -0.38466 23009 ft 429 kts 45°
2026-05-05 17:26 51.10126 -0.35059 23529 ft 434 kts 45°
2026-05-05 17:26 51.12223 -0.31574 23995 ft 438 kts 45°
2026-05-05 17:26 51.14334 -0.28057 24451 ft 441 kts 46°
2026-05-05 17:27 51.16460 -0.24504 24914 ft 445 kts 46°
2026-05-05 17:27 51.18601 -0.20920 25355 ft 449 kts 46°
2026-05-05 17:27 51.20761 -0.17299 25788 ft 452 kts 46°
2026-05-05 17:27 51.22940 -0.13641 26241 ft 455 kts 47°
2026-05-05 17:28 51.25127 -0.09955 26693 ft 458 kts 47°
2026-05-05 17:28 51.27327 -0.06252 27138 ft 461 kts 47°
2026-05-05 17:28 51.29389 -0.02335 27538 ft 463 kts 56°
2026-05-05 17:28 51.30920 0.02179 27973 ft 464 kts 69°
2026-05-05 17:29 51.31783 0.07124 28459 ft 461 kts 82°
2026-05-05 17:29 51.31937 0.12210 28987 ft 457 kts 95°
2026-05-05 17:29 51.31474 0.17220 29555 ft 454 kts 103°
2026-05-05 17:29 51.30848 0.22146 30136 ft 452 kts 104°
2026-05-05 17:30 51.30211 0.27062 30631 ft 451 kts 104°
2026-05-05 17:30 51.29589 0.31979 31088 ft 450 kts 103°
2026-05-05 17:30 51.28980 0.36881 31541 ft 450 kts 103°
2026-05-05 17:30 51.28377 0.41773 31982 ft 449 kts 103°
2026-05-05 17:31 51.27772 0.46671 32419 ft 449 kts 103°
2026-05-05 17:31 51.27166 0.51552 32877 ft 447 kts 103°
2026-05-05 17:31 51.26557 0.56408 33345 ft 445 kts 103°
2026-05-05 17:31 51.25951 0.61188 33749 ft 444 kts 103°
2026-05-05 17:32 51.25336 0.66012 34124 ft 443 kts 103°
2026-05-05 17:32 51.24724 0.70824 34398 ft 443 kts 103°
2026-05-05 17:32 51.24109 0.75656 34658 ft 444 kts 103°
2026-05-05 17:32 51.23493 0.80485 34909 ft 444 kts 103°
2026-05-05 17:33 51.22873 0.85320 35153 ft 444 kts 103°
2026-05-05 17:33 51.22249 0.90152 35389 ft 445 kts 103°
2026-05-05 17:33 51.21623 0.94983 35603 ft 445 kts 103°
2026-05-05 17:33 51.20996 0.99807 35889 ft 444 kts 104°
2026-05-05 17:34 51.20366 1.04624 36163 ft 443 kts 104°
2026-05-05 17:34 51.19735 1.09447 36379 ft 444 kts 104°
2026-05-05 17:34 51.19108 1.14268 36576 ft 445 kts 103°
2026-05-05 17:34 51.18478 1.19096 36787 ft 445 kts 104°
2026-05-05 17:35 51.17842 1.23925 36947 ft 447 kts 104°
2026-05-05 17:35 51.16558 1.33613 36948 ft 446 kts 103°
2026-05-05 17:36 51.15869 1.43449 36914 ft 448 kts 96°
2026-05-05 17:36 51.15418 1.53372 36918 ft 448 kts 97°
2026-05-05 17:37 51.14938 1.63220 36919 ft 448 kts 97°
2026-05-05 17:37 51.14446 1.73132 36910 ft 448 kts 97°
2026-05-05 17:38 51.13944 1.83034 36908 ft 448 kts 96°
2026-05-05 17:38 51.13439 1.92926 36901 ft 448 kts 97°
2026-05-05 17:39 51.12920 2.02817 36904 ft 448 kts 97°
2026-05-05 17:39 51.12397 2.12700 36904 ft 448 kts 97°
2026-05-05 17:40 51.11863 2.22600 36904 ft 448 kts 97°
2026-05-05 17:40 51.11320 2.32489 36896 ft 448 kts 97°
2026-05-05 17:41 51.10771 2.42303 36895 ft 449 kts 98°
2026-05-05 17:41 51.10209 2.52188 36894 ft 449 kts 98°
2026-05-05 17:42 51.09639 2.62079 36891 ft 449 kts 98°
2026-05-05 17:42 51.08318 2.71695 36888 ft 445 kts 108°
2026-05-05 17:43 51.06580 2.81168 36888 ft 445 kts 109°
2026-05-05 17:43 51.04859 2.90572 36898 ft 444 kts 109°
2026-05-05 17:44 51.03137 3.00002 36898 ft 444 kts 109°
2026-05-05 17:44 51.01413 3.09419 36889 ft 444 kts 109°
2026-05-05 17:45 50.99673 3.18826 36883 ft 444 kts 109°
2026-05-05 17:45 50.97927 3.28238 36874 ft 444 kts 109°
2026-05-05 17:46 50.96167 3.37620 36864 ft 442 kts 109°
2026-05-05 17:46 50.94417 3.46907 36859 ft 442 kts 109°
2026-05-05 17:47 50.92664 3.56268 36857 ft 442 kts 109°
2026-05-05 17:47 50.90896 3.65594 36852 ft 442 kts 109°
2026-05-05 17:48 50.89126 3.74922 36853 ft 442 kts 109°
2026-05-05 17:48 50.87341 3.84242 36850 ft 442 kts 110°
2026-05-05 17:49 50.85546 3.93566 36855 ft 442 kts 110°
2026-05-05 17:49 50.83731 4.02871 36862 ft 442 kts 110°
2026-05-05 17:50 50.81936 4.12117 36865 ft 442 kts 110°
2026-05-05 17:50 50.80143 4.21416 36862 ft 442 kts 110°
2026-05-05 17:51 50.78318 4.30744 36866 ft 440 kts 110°
2026-05-05 17:51 50.76508 4.39926 36876 ft 440 kts 110°
2026-05-05 17:52 50.74680 4.49152 36874 ft 440 kts 110°
2026-05-05 17:52 50.72848 4.58380 36871 ft 440 kts 110°
2026-05-05 17:53 50.71003 4.67606 36861 ft 440 kts 110°
2026-05-05 17:53 50.69154 4.76813 36848 ft 440 kts 110°
2026-05-05 17:54 50.67312 4.85939 35931 ft 438 kts 110°
2026-05-05 17:54 50.66377 4.90546 34921 ft 443 kts 110°
2026-05-05 17:54 50.65440 4.95177 34149 ft 442 kts 110°
2026-05-05 17:54 50.64498 4.99770 33351 ft 439 kts 111°
2026-05-05 17:55 50.63555 5.04349 32559 ft 437 kts 110°
2026-05-05 17:55 50.62615 5.08880 31797 ft 435 kts 110°
2026-05-05 17:55 50.61682 5.13403 31031 ft 433 kts 110°
2026-05-05 17:55 50.60755 5.17910 30316 ft 433 kts 110°
2026-05-05 17:56 50.59823 5.22429 29527 ft 433 kts 110°
2026-05-05 17:56 50.58904 5.26876 28786 ft 433 kts 110°
2026-05-05 17:56 50.57964 5.31379 28124 ft 431 kts 110°
2026-05-05 17:56 50.57034 5.35833 27502 ft 427 kts 110°
2026-05-05 17:57 50.56109 5.40253 26849 ft 425 kts 110°
2026-05-05 17:57 50.55180 5.44669 26189 ft 423 kts 110°
2026-05-05 17:57 50.54261 5.49056 25541 ft 421 kts 110°
2026-05-05 17:57 50.53347 5.53417 24925 ft 419 kts 110°
2026-05-05 17:58 50.52475 5.57775 24294 ft 418 kts 105°
2026-05-05 17:58 50.52071 5.62294 23662 ft 419 kts 92°
2026-05-05 17:58 50.52390 5.66835 22990 ft 420 kts 78°
2026-05-05 17:58 50.53254 5.71225 22303 ft 419 kts 72°
2026-05-05 17:59 50.54201 5.75540 21623 ft 417 kts 72°
2026-05-05 17:59 50.55140 5.79853 20969 ft 415 kts 72°
2026-05-05 17:59 50.56055 5.84150 20345 ft 413 kts 73°
2026-05-05 17:59 50.56952 5.88422 19756 ft 410 kts 73°
2026-05-05 18:00 50.57841 5.92663 19189 ft 407 kts 73°
2026-05-05 18:00 50.58722 5.96874 18627 ft 404 kts 73°
2026-05-05 18:00 50.59596 6.01067 18098 ft 403 kts 73°
2026-05-05 18:00 50.60467 6.05252 17512 ft 401 kts 73°
2026-05-05 18:01 50.61332 6.09423 16935 ft 399 kts 73°
2026-05-05 18:01 50.62190 6.13571 16373 ft 397 kts 73°
2026-05-05 18:01 50.63029 6.17650 15850 ft 395 kts 74°
2026-05-05 18:01 50.63577 6.21872 15305 ft 391 kts 88°
2026-05-05 18:02 50.63477 6.26121 14810 ft 387 kts 96°
2026-05-05 18:02 50.63235 6.30327 14300 ft 384 kts 96°
2026-05-05 18:02 50.63002 6.34479 13784 ft 376 kts 96°
2026-05-05 18:02 50.62785 6.38538 13248 ft 369 kts 96°
2026-05-05 18:03 50.62573 6.42527 12744 ft 362 kts 96°
2026-05-05 18:03 50.62364 6.46435 12278 ft 355 kts 96°
2026-05-05 18:03 50.62161 6.50309 11805 ft 354 kts 96°
2026-05-05 18:03 50.61959 6.54165 11329 ft 354 kts 96°
2026-05-05 18:04 50.61751 6.58063 10921 ft 348 kts 96°
2026-05-05 18:04 50.61554 6.61797 10673 ft 335 kts 96°
2026-05-05 18:04 50.61363 6.65390 10494 ft 323 kts 96°
2026-05-05 18:04 50.61177 6.68838 10337 ft 310 kts 96°
2026-05-05 18:05 50.60996 6.72155 10195 ft 298 kts 96°
2026-05-05 18:05 50.60884 6.74277 10065 ft 292 kts 95°
2026-05-05 18:05 50.60951 6.77454 9683 ft 291 kts 85°
2026-05-05 18:05 50.61189 6.80633 9193 ft 292 kts 84°
2026-05-05 18:06 50.61434 6.83802 8761 ft 291 kts 85°
2026-05-05 18:06 50.61595 6.85888 8511 ft 289 kts 84°
2026-05-05 18:06 50.61915 6.90056 8085 ft 283 kts 84°
2026-05-05 18:06 50.62144 6.93098 7842 ft 276 kts 84°
2026-05-05 18:07 50.62366 6.96075 7755 ft 271 kts 84°
2026-05-05 18:07 50.62585 6.99012 7768 ft 270 kts 84°
2026-05-05 18:07 50.62802 7.01935 7588 ft 267 kts 84°
2026-05-05 18:07 50.63014 7.04817 7215 ft 266 kts 84°
2026-05-05 18:08 50.63219 7.07668 7035 ft 258 kts 84°
2026-05-05 18:08 50.63415 7.10423 6861 ft 249 kts 84°
2026-05-05 18:08 50.63606 7.13092 6586 ft 247 kts 84°
2026-05-05 18:08 50.63802 7.15777 6270 ft 246 kts 84°
2026-05-05 18:09 50.63999 7.18448 5928 ft 245 kts 84°
2026-05-05 18:09 50.64195 7.21104 5569 ft 244 kts 84°
2026-05-05 18:09 50.64390 7.23765 5230 ft 244 kts 84°
2026-05-05 18:09 50.64582 7.26428 4922 ft 244 kts 84°
2026-05-05 18:10 50.65014 7.28990 4645 ft 242 kts 61°
2026-05-05 18:10 50.66022 7.31046 4476 ft 232 kts 49°
2026-05-05 18:10 50.67105 7.32850 4343 ft 221 kts 47°
2026-05-05 18:10 50.68140 7.34562 4162 ft 212 kts 47°
2026-05-05 18:11 50.69227 7.36094 3852 ft 210 kts 32°
2026-05-05 18:11 50.70619 7.36703 3461 ft 211 kts 360°
2026-05-05 18:11 50.72024 7.36107 3105 ft 212 kts 329°
2026-05-05 18:11 50.73131 7.34650 2977 ft 205 kts 317°
2026-05-05 18:12 50.74141 7.33071 2964 ft 205 kts 317°
2026-05-05 18:12 50.75168 7.31527 2967 ft 204 kts 318°
2026-05-05 18:12 50.76212 7.30009 2848 ft 203 kts 319°
2026-05-05 18:12 50.77249 7.28511 2598 ft 201 kts 319°
2026-05-05 18:13 50.78266 7.27042 2343 ft 200 kts 319°
2026-05-05 18:13 50.79299 7.25552 2059 ft 198 kts 320°
2026-05-05 18:13 50.80300 7.24104 1831 ft 190 kts 320°
2026-05-05 18:13 50.81255 7.22725 1582 ft 186 kts 320°
2026-05-05 18:14 50.82177 7.21391 1329 ft 172 kts 320°
2026-05-05 18:14 50.83025 7.20166 1058 ft 160 kts 318°
2026-05-05 18:14 50.83821 7.19014 800 ft 149 kts 317°
2026-05-05 18:14 50.84551 7.17957 587 ft 137 kts 318°
2026-05-05 18:15 50.85251 7.16950 425 ft 135 kts 318°
2026-05-05 18:15 50.85940 7.15952 306 ft 129 kts 319°
2026-05-05 18:15 50.86519 7.15122 284 ft 94 kts 318°
2026-05-05 18:15 50.86949 7.14501 263 ft 76 kts 316°
2026-05-05 18:16 50.87313 7.13976 247 ft 66 kts 316°
2026-05-05 18:16 50.87627 7.13516 244 ft 57 kts 317°
2026-05-05 18:16 50.87894 7.13127 244 ft 46 kts 317°
2026-05-05 18:16 50.88005 7.12938 244 ft 15 kts 278°
2026-05-05 18:17 50.87997 7.12759 242 ft 17 kts 243°
2026-05-05 18:17 50.87912 7.12622 238 ft 19 kts 198°
2026-05-05 18:17 50.87780 7.12558 238 ft 21 kts 199°
2026-05-05 18:17 50.87637 7.12482 238 ft 23 kts 198°
2026-05-05 18:18 50.87480 7.12403 237 ft 25 kts 197°
2026-05-05 18:18 50.87335 7.12330 237 ft 22 kts 198°
2026-05-05 18:18 50.87181 7.12252 238 ft 18 kts 198°
2026-05-05 18:18 50.87101 7.12150 239 ft 16 kts 226°
2026-05-05 18:19 50.87006 7.12041 238 ft 12 kts 186°
2026-05-05 18:19 50.86919 7.12055 238 ft 14 kts 165°
2026-05-05 18:19 50.86818 7.12097 238 ft 16 kts 165°
2026-05-05 18:19 50.86702 7.12145 238 ft 18 kts 165°
2026-05-05 18:20 50.86571 7.12198 238 ft 20 kts 165°
2026-05-05 18:20 50.86427 7.12257 238 ft 22 kts 165°
2026-05-05 18:20 50.86336 7.12295 238 ft 11 kts 165°
2026-05-05 18:20 50.86325 7.12275 238 ft 3 kts 295°
2026-05-05 18:21 50.86330 7.12226 238 ft 6 kts 271°
2026-05-05 18:21 50.86318 7.12148 238 ft 9 kts 254°
2026-05-05 18:21 50.86275 7.12065 238 ft 11 kts 209°
2026-05-05 18:21 50.86235 7.12029 238 ft 4 kts 211°
2026-05-05 18:22 50.86220 7.12015 238 ft 0 kts 210°
2026-05-05 18:22 50.86217 7.12012 238 ft 0 kts 210°